Notices

What's New in latest Release from April 7th, 2021:

- Updated Glossary, including Speed of Maximum Gust, and Total Hourly Precipitation

- Updated national and regional climate services offices contacts and prices information

- Addition of station inventory lists for 1981-2010, 1971-2000, and 1961-1990 Normals.

If you haven't already, please take our survey and provide feedback about our website: https://eccc.sondage-survey.ca/f/LanguageSelection.aspx?s=442ca660-fcf1-47c0-95a9-59707d6fd709

Hourly Data Report for September 26, 2017

TORONTO CITY
ONTARIO

43°40'00.000" N
79°24'00.000" W
112.50 m
6158355
71508
XTO

Download Data

Hourly Data (September 2017)
Hourly Data Report for September 26, 2017
TIME
LST
Temp Definition
°C
Dew Point Definition
°C
Rel Hum Definition
%
Precip. Amount Definition
mm

Wind Dir Definition
10's deg

Wind Spd Definition
km/h
Visibility Definition
km
Stn Press Definition
kPa
Hmdx Definition


Wind Chill Definition


Weather Definition


00:00 24.5 18.0 67 0.0 LegendMM LegendMM   100.24 31   LegendNANA
01:00 24.0 18.2 70 0.0 LegendMM LegendMM   100.25 30   LegendNANA
02:00 23.6 18.3 72 0.0 LegendMM LegendMM   100.22 30   LegendNANA
03:00 23.0 18.7 77 0.0 LegendMM LegendMM   100.21 30   LegendNANA
04:00 22.3 18.5 79 0.0 LegendMM LegendMM   100.22 29   LegendNANA
05:00 22.5 18.9 80 0.0 LegendMM LegendMM   100.20 29   LegendNANA
06:00 21.5 18.0 80 0.0 LegendMM LegendMM   100.22 28   LegendNANA
07:00 22.1 18.8 82 0.0 LegendMM LegendMM   100.26 29   LegendNANA
08:00 24.0 19.4 75 0.0 LegendMM LegendMM   100.25 31   LegendNANA
09:00 25.7 20.1 71 0.0 LegendMM LegendMM   100.25 33   LegendNANA
10:00 28.4 21.0 64 0.0 LegendMM LegendMM   100.24 37   LegendNANA
11:00 27.1 18.3 59 0.0 LegendMM LegendMM   100.23 33   LegendNANA
12:00 28.6 17.8 52 0.0 LegendMM LegendMM   100.20 34   LegendNANA
13:00 29.4 16.8 47 0.0 LegendMM LegendMM   100.14 35   LegendNANA
14:00 30.8 16.2 42 0.0 LegendMM LegendMM   100.08 36   LegendNANA
15:00 30.1 17.5 47 0.0 LegendMM LegendMM   100.02 36   LegendNANA
16:00 29.0 18.5 53 0.0 LegendMM LegendMM   99.97 35   LegendNANA
17:00 28.4 18.6 56 0.0 LegendMM LegendMM   99.97 35   LegendNANA
18:00 27.8 16.7 51 0.0 LegendMM LegendMM   99.97 33   LegendNANA
19:00 26.7 16.9 55 0.0 LegendMM LegendMM   99.96 32   LegendNANA
20:00 26.5 17.2 57 0.0 LegendMM LegendMM   99.98 32   LegendNANA
21:00 25.4 17.7 62 0.0 LegendMM LegendMM   99.97 31   LegendNANA
22:00 24.2 18.5 70 0.0 LegendMM LegendMM   99.97 31   LegendNANA
23:00 23.5 19.0 76 0.0 LegendMM LegendMM   99.93 30   LegendNANA

Notes on Data Quality.

Legend

  • E = Estimated
  • M = Missing
  • NA = Not Available*
  • [empty] = Indicates an unobserved value
Date modified: